Regional Weather Roundup
Issued by NWS

Current Version | Previous Version | Text Only | Print | Product List | Glossary On
Versions: 1 2 3 4 5 6 7 8 9 10 11 12 13 14 15 16 17 18 19 20 21 22 23 24 25 26 27 28 29 30 31 32 33 34 35 36 37 38 39 40 41 42 43 44 45 46 47 48 49 50
000
ASCA42 TJSJ 271711
RWRPR
PUERTO RICO/U.S. VIRGIN ISLANDS HOURLY WEATHER ROUNDUP
NATIONAL WEATHER SERVICE SAN JUAN PR
100 PM AST THU NOV 27 2014

PRZ001-004-271800-
PUERTO RICO

CITY           SKY/WX    TMP DP  RH WIND       PRES   REMARKS
SAN JUAN LMM   MOSUNNY   84  72  65 NE12      29.96F
MAYAGUEZ       MOSUNNY   86  66  51 SW6       30.03
AGUADILLA      MOSUNNY   84  70  61 E18       29.98F
CEIBA          SUNNY     82  70  65 NE7       29.98F
$$

PRZ006-007-271800-
U.S. VIRGIN ISLANDS

CITY           SKY/WX    TMP DP  RH WIND       PRES   REMARKS
CHRISTIANSTED  MOSUNNY   86  68  54 E13       29.96F
$$

HOURLY WEATHER ROUNDUP FOR THE NEWS MEDIA

CITY           SKY/WX    TMP DP  RH WIND       PRES   REMARKS
MIAMI          MOSUNNY   70  31  23 N15G24    30.23F
ORLANDO        SUNNY     68  49  50 NW18      30.23F
NEW YORK       FLURRIES  37  33  85 NW7       30.00F WCI  32
NEWARK         LGT RAIN  37  34  89 VRB5      30.00F WCI  33
CHICAGO        PTSUNNY   25  16  68 NW16      30.33R WCI  12
HARTFORD       PTSUNNY   41  31  67 N8        29.92F
BOSTON         CLOUDY    38  29  70 NW8       29.94F WCI  32
DALLAS         MOSUNNY   51  21  30 E6        30.55F
PHILADELPHIA   PTSUNNY   39  29  67 NW10      30.03F WCI  32



USA.gov is the U.S. government's official web portal to all federal, state and local government web resources and services.